Location: Caltech
(34.1382°N, 118.1253°W)
Time: 01:25:27
(UTC-08:00)

Cosmos 1484 Rocket - Visible Passes

Search period start: 30 January 2015 00:00
Search period end: 09 February 2015 00:00
Orbit: 514 x 569 km, 97.4° (Epoch: 29 January)

Date Brightness Start Highest point End Pass type
(mag) Time Alt. Az. Time Alt. Az. Time Alt. Az.
30 Jan 3.0 19:13:40 10° S 19:17:40 74° WSW 19:21:45 10° NNW visible
31 Jan 2.7 19:06:50 10° SSE 19:10:51 89° E 19:14:56 10° N visible
01 Feb 2.7 19:00:01 10° SSE 19:04:02 73° ENE 19:08:06 10° N visible
02 Feb 2.8 18:53:15 10° SSE 18:57:13 59° ENE 19:01:14 10° N visible
03 Feb 3.0 18:46:32 10° SSE 18:50:24 48° ENE 18:54:20 10° N visible
03 Feb 6.2 20:25:01 10° W 20:25:21 10° W 20:25:24 10° W visible
04 Feb 3.3 18:39:50 10° SE 18:43:35 39° ENE 18:47:24 10° N visible
04 Feb 6.0 20:16:33 10° WSW 20:18:25 12° W 20:20:03 10° WNW visible
05 Feb 3.5 18:33:10 10° SE 18:36:45 32° ENE 18:40:25 10° N visible
05 Feb 5.8 20:09:00 10° SW 20:11:29 15° W 20:13:48 10° WNW visible
06 Feb 3.8 18:26:33 10° SE 18:29:57 27° ENE 18:33:24 10° NNE visible
06 Feb 5.6 20:01:40 10° SW 20:04:35 18° W 20:07:21 10° NW visible
07 Feb 4.0 18:19:59 10° ESE 18:23:07 22° ENE 18:26:21 10° NNE visible
07 Feb 5.3 19:54:25 10° SSW 19:57:39 22° W 20:00:48 10° NW visible
08 Feb 4.2 18:13:30 10° ESE 18:16:18 19° ENE 18:19:13 10° NNE visible
08 Feb 5.0 19:47:16 10° SSW 19:50:45 27° W 19:54:10 10° NW visible
